Wind_Speed
9 9 10 10 10 10 10 10 11 11 11 11 11 10 10 11 12 14 15 15 16 15 15 15 15 16 16 16 17 17 19 19 19 14 12 18 12 9 11 9 4 5 9 9 9 8 6 7 10 13 11 9 5 3 7 6 4 4 3 4 5 5 5 5 4 1 2 1 3 4 6 5 4 4 2 3 3 1 8 10 9 11 10 14 23 33 36 30
9 10 10 10 10 11 11 11 11 11 11 12 11 11 10 11 12 13 15 16 16 15 15 15 15 16 16 16 16 17 19 19 17 16 22 23 16 14 15 13 8 6 9 11 13 12 8 7 10 11 7 4 4 5 6 4 5 4 3 4 6 6 6 8 5 1 4 3 3 4 3 4 2 3 2 3 5 1 10 8 8 12 12 17 24 29 30 29
10 10 10 10 11 11 12 12 12 11 11 12 12 11 11 11 12 13 14 15 15 15 15 16 16 16 16 16 16 16 17 16 10 13 21 20 19 21 18 16 13 10 10 12 16 16 13 13 14 11 6 5 4 6 6 4 5 5 4 4 6 6 7 10 6 3 6 6 6 5 4 4 4 5 2 3 8 5 9 7 7 10 10 13 17 20 23 25
10 10 10 10 11 11 12 13 12 12 12 12 12 12 11 11 12 13 14 15 15 14 14 15 15 16 16 16 15 15 13 9 4 8 11 8 16 21 18 15 13 12 12 14 17 16 16 16 15 10 6 5 5 7 7 5 5 4 5 6 6 6 7 11 5 5 6 7 6 5 6 7 5 3 3 5 6 6 7 7 9 11 10 11 13 15 17 18
11 11 11 11 11 12 13 13 13 13 13 13 13 13 12 11 12 13 14 15 15 14 14 15 15 16 16 16 14 11 7 3 1 2 2 5 11 16 16 15 11 12 13 15 15 14 16 15 11 8 6 5 5 6 6 8 6 3 7 9 8 7 8 10 4 5 5 6 3 2 4 6 5 3 3 6 2 2 6 9 13 14 12 12 12 12 13 13
10 11 11 12 11 12 13 14 14 14 14 14 14 14 13 12 12 13 14 15 15 14 14 14 16 16 16 17 11 5 1 1 3 2 8 8 10 12 12 12 10 12 14 14 11 10 12 11 9 6 4 5 6 6 6 8 7 3 6 6 8 9 8 10 4 4 6 5 2 1 3 5 4 3 3 6 3 5 8 10 12 12 13 14 13 11 11 12
11 11 12 12 12 12 13 14 15 14 14 14 14 14 13 12 12 13 15 15 15 14 14 14 16 16 16 16 6 2 1 6 10 4 8 9 10 10 9 9 9 14 14 11 9 8 8 8 8 5 4 5 6 8 8 8 8 6 7 6 8 8 8 9 4 2 5 4 1 1 4 5 3 3 3 7 2 10 10 9 11 10 11 12 11 10 9 10
12 12 13 12 12 12 13 15 15 15 15 15 14 14 14 13 13 14 15 16 15 14 14 14 15 15 15 12 3 1 3 9 15 10 10 11 11 9 8 9 10 15 14 11 10 9 8 8 8 5 5 6 6 8 7 7 7 7 7 7 7 7 8 8 5 3 3 5 2 1 4 5 4 2 3 8 1 12 12 10 12 11 11 10 9 9 8 8
12 13 13 13 13 13 14 15 16 16 15 15 15 15 15 14 14 14 15 16 16 15 14 14 15 14 10 6 3 2 5 9 10 12 12 10 10 10 10 10 13 17 13 12 13 12 9 6 8 7 5 5 7 8 7 5 5 8 8 8 7 8 8 7 7 5 2 3 3 3 5 6 6 4 4 9 5 9 14 12 12 13 12 9 8 8 7 6
12 13 13 14 14 14 14 15 16 16 16 16 16 15 15 15 15 15 15 16 15 14 14 14 14 12 8 4 3 2 6 6 8 10 10 8 9 11 12 11 16 19 13 12 14 14 10 6 8 6 4 5 6 8 8 6 5 7 7 7 9 9 7 5 6 5 2 3 5 4 5 6 6 4 4 9 8 7 14 13 12 13 12 10 8 7 7 6
13 13 13 14 14 14 15 15 16 16 16 17 17 16 16 15 15 15 15 15 15 14 14 13 11 8 6 5 2 4 6 7 10 7 6 8 10 12 13 13 17 20 14 11 14 17 16 13 10 5 4 3 5 8 7 7 7 5 4 4 8 8 6 5 6 6 4 2 4 2 4 7 5 3 5 8 9 7 11 14 13 12 11 11 9 7 6 5
12 13 14 14 15 15 16 16 16 17 17 17 18 17 17 16 16 15 15 15 14 14 13 11 7 5 5 4 6 12 10 6 8 9 8 7 9 12 13 15 17 20 17 11 13 21 21 15 8 4 3 1 4 5 5 9 8 6 5 4 6 6 5 6 7 6 5 2 5 3 4 7 5 7 9 8 9 5 11 14 11 10 10 10 9 7 5 5
12 13 13 14 15 15 16 16 17 17 17 18 19 18 18 17 16 15 16 16 15 13 10 8 5 3 4 3 11 19 14 10 8 12 10 7 8 9 11 15 16 19 19 14 15 17 15 12 8 4 3 2 3 2 7 10 5 5 5 3 4 5 5 8 7 8 7 5 6 5 2 6 7 10 10 10 10 5 14 13 11 9 9 9 8 7 5 5
13 13 13 14 15 16 17 17 17 17 18 19 18 19 19 18 17 16 16 16 13 10 6 5 3 3 3 6 15 19 14 16 16 12 11 8 11 11 11 14 15 17 17 19 19 12 9 10 6 4 4 3 4 6 8 7 4 4 3 3 3 2 7 8 7 9 9 7 7 6 4 7 6 9 10 10 11 8 13 12 11 9 7 7 7 7 6 5
13 13 13 14 15 16 17 17 18 18 19 19 19 19 19 17 16 14 14 13 10 7 6 4 5 5 2 8 16 15 9 13 16 16 14 12 15 12 13 16 15 17 18 18 16 10 8 7 3 2 3 4 4 5 5 4 4 2 1 4 3 4 8 8 7 11 11 7 9 9 4 7 6 10 9 9 11 8 13 11 10 9 8 8 7 7 7 5
13 13 13 14 16 17 17 18 18 19 19 20 20 19 18 16 13 11 11 10 7 4 3 3 9 8 2 5 9 9 8 9 10 14 14 17 18 13 16 17 15 18 18 13 10 8 6 4 1 2 3 4 3 4 4 3 4 2 4 4 4 5 7 7 8 13 13 7 9 9 3 6 5 8 9 11 14 10 13 12 10 10 9 8 7 6 7 5
13 14 14 15 16 17 17 18 18 19 20 21 21 20 17 11 8 10 10 8 4 3 6 5 6 7 5 7 8 6 10 12 12 14 15 18 19 16 16 13 10 12 10 6 6 5 3 2 1 2 3 3 3 4 3 4 5 3 4 4 5 7 6 6 6 11 14 7 7 8 4 8 8 8 10 7 11 9 12 13 12 10 7 7 6 6 6 6
13 14 14 16 17 17 17 18 18 19 20 21 21 20 14 6 6 9 7 3 2 3 7 8 3 3 5 8 8 8 12 16 17 16 16 17 19 17 14 8 5 6 2 2 5 3 1 1 2 2 3 4 4 4 4 5 5 5 4 4 5 8 7 7 4 7 11 8 8 8 6 11 10 9 9 2 10 9 9 12 11 10 9 7 7 7 6 6
13 14 15 16 17 17 18 18 18 19 20 21 20 16 7 2 3 5 5 4 3 2 3 5 6 2 3 7 12 14 13 18 17 15 16 17 18 16 12 10 5 5 4 1 3 4 3 1 2 3 4 4 6 6 6 7 8 8 6 4 5 6 7 8 6 9 10 8 7 9 8 10 8 7 7 2 7 7 9 12 11 10 10 8 8 7 7 6
14 14 15 16 17 17 18 18 18 18 19 20 20 13 2 1 0 2 4 6 7 7 5 4 9 5 8 8 6 12 15 16 13 11 17 19 15 11 9 9 7 5 5 4 5 5 4 3 4 5 6 7 8 8 9 9 9 10 8 5 6 5 7 7 6 12 9 6 4 7 7 8 7 6 6 1 3 4 7 11 11 10 10 9 9 8 8 8
14 15 15 16 17 18 18 18 18 17 17 17 16 8 2 3 2 0 2 7 12 15 13 10 12 12 14 13 10 6 10 9 10 11 17 19 13 8 5 7 7 5 6 7 6 4 5 5 6 8 9 10 9 9 10 10 9 9 7 5 6 4 7 10 3 8 6 6 3 3 2 6 7 7 8 3 1 4 6 9 11 11 10 9 10 10 9 7
15 14 15 17 17 18 18 19 18 17 18 16 10 5 6 6 5 6 3 4 10 15 16 15 14 15 19 22 24 12 7 6 9 10 16 17 10 6 5 6 6 5 6 7 4 3 5 5 9 11 10 10 11 10 9 10 10 8 5 4 6 4 6 9 3 6 6 4 2 4 4 5 7 7 8 7 5 6 7 9 12 12 11 10 10 11 10 8
15 14 16 17 17 19 19 19 19 19 20 15 9 9 8 8 9 13 6 3 8 10 13 14 14 13 16 18 21 15 9 7 9 9 16 17 8 7 6 6 7 6 7 7 6 4 4 7 11 12 10 9 11 12 10 9 7 6 5 3 5 5 4 5 2 4 4 4 4 6 2 4 5 6 7 8 8 6 6 7 12 14 14 14 15 13 12 11
15 15 16 17 18 19 19 21 20 18 17 15 16 16 12 10 12 12 5 2 6 7 11 15 13 11 15 16 12 10 6 5 7 9 18 16 7 6 6 7 8 7 6 10 10 7 7 10 12 11 11 10 9 10 9 7 4 4 5 3 3 6 5 5 4 1 2 1 4 8 2 4 4 6 6 7 7 5 5 3 5 11 14 14 15 14 13 14
15 15 16 17 18 19 21 20 14 12 11 11 15 13 8 9 9 7 4 2 4 5 7 13 10 10 18 18 11 8 4 4 6 6 19 17 9 7 5 6 6 6 8 11 11 8 10 10 11 12 12 11 9 8 8 8 4 1 2 3 4 8 9 9 8 5 3 4 2 5 4 5 5 5 7 7 7 7 5 5 6 7 11 12 12 12 12 12
15 15 16 17 17 20 18 10 8 13 11 10 11 7 5 4 5 5 2 1 4 2 4 7 8 12 17 13 8 7 5 6 9 7 17 19 14 9 6 4 4 6 9 9 7 4 8 9 8 12 13 13 12 9 8 7 4 1 2 4 6 8 10 10 9 5 2 2 4 3 4 3 5 5 8 7 6 9 8 8 9 7 6 8 10 12 12 11
15 15 16 16 16 17 12 6 12 15 7 7 10 5 4 5 4 4 1 0 4 3 5 3 4 12 14 11 10 7 3 6 9 9 13 18 16 9 7 5 3 6 6 5 4 3 7 9 8 8 9 11 10 7 6 7 5 2 4 5 7 9 9 9 8 5 3 4 4 1 3 1 4 5 7 7 6 7 8 7 4 3 5 3 5 8 9 8
15 15 16 16 16 14 11 13 16 11 7 10 15 8 6 8 5 2 2 0 2 4 5 1 2 8 9 10 13 8 5 5 7 8 12 18 15 6 6 7 5 8 8 5 4 4 7 10 10 8 6 6 6 5 6 7 4 3 5 8 9 9 9 7 6 5 3 4 5 4 2 1 4 5 7 7 3 3 4 5 6 8 10 9 7 8 8 8
16 16 16 17 17 12 10 14 13 8 10 11 13 12 11 9 4 1 1 1 2 3 4 2 2 5 5 7 10 8 8 5 3 7 10 15 15 7 5 9 8 7 8 7 6 6 5 7 10 9 6 5 4 3 5 6 4 5 7 9 8 6 5 2 1 2 2 1 3 3 1 1 4 5 5 3 2 3 3 6 7 8 10 9 6 7 7 7
16 16 16 17 16 10 9 13 15 10 15 14 13 14 12 7 2 2 0 2 2 2 3 2 2 6 7 8 8 8 10 8 3 7 8 9 12 7 1 4 7 6 6 6 7 9 8 5 6 6 3 5 5 4 3 4 5 6 7 7 6 6 2 3 3 3 4 2 4 5 4 3 4 5 4 3 3 2 2 5 6 8 12 11 9 8 8 8
17 17 16 15 14 11 10 9 10 6 13 15 13 9 6 3 0 2 2 2 2 2 3 1 4 9 11 9 7 8 10 10 5 8 8 6 8 6 2 1 4 3 3 3 5 9 11 7 4 2 2 4 6 6 5 6 8 6 5 4 2 4 2 2 4 4 1 4 5 5 5 4 3 3 4 4 5 5 5 6 7 9 11 11 9 9 8 8
19 18 18 17 15 14 12 9 4 4 11 15 10 4 1 1 1 2 2 2 2 3 4 6 8 9 12 10 8 9 9 8 6 7 9 6 5 5 4 3 3 2 3 3 3 7 9 8 3 2 4 3 4 4 3 5 7 5 4 3 2 1 1 0 2 1 3 5 5 5 6 4 3 3 2 5 6 7 7 6 7 8 10 11 10 8 8 8
21 22 22 20 16 19 21 18 12 9 12 15 8 1 1 1 2 4 5 4 1 5 3 8 11 10 11 9 7 10 9 7 7 6 7 8 6 5 7 7 5 4 3 4 3 3 5 6 4 4 4 1 5 4 2 3 2 4 4 3 4 2 1 2 3 2 4 5 6 6 5 3 1 1 3 6 6 6 7 7 9 11 12 12 10 10 9 10
24 25 25 22 19 22 24 20 16 11 12 12 4 1 1 2 3 5 6 5 4 7 6 8 14 10 11 10 8 11 10 7 9 8 5 7 6 5 7 9 9 6 3 3 3 2 3 4 5 6 4 5 6 5 5 4 3 3 4 4 5 4 3 3 3 4 4 4 3 2 2 2 3 3 4 6 6 6 8 9 12 15 14 12 12 12 12 10
26 23 20 19 20 21 21 19 13 7 9 7 1 1 2 2 3 3 3 5 5 7 4 8 10 5 7 8 7 9 9 7 10 9 5 6 6 5 5 8 11 8 3 3 3 2 3 4 7 9 8 7 8 5 5 3 3 2 4 5 4 5 5 3 4 4 3 1 2 0 1 0 3 2 3 6 7 8 11 13 15 14 12 11 11 11 10 9
23 19 14 16 19 14 13 15 12 8 7 3 1 3 3 3 4 3 1 5 5 4 1 4 5 1 2 4 4 6 8 7 9 8 5 6 7 7 6 6 10 11 6 4 2 2 2 4 7 12 11 8 9 7 7 5 3 3 3 5 6 6 5 3 4 3 3 3 2 2 3 3 1 2 6 6 7 9 13 14 14 11 11 11 9 8 8 8
19 16 11 14 17 9 8 14 14 10 6 2 2 3 3 4 7 5 2 4 5 5 3 3 2 2 3 3 4 6 7 5 7 6 4 6 6 8 10 7 9 13 10 7 3 2 4 5 3 5 7 7 10 10 10 9 7 4 3 5 6 4 3 2 1 2 2 2 4 3 6 1 1 1 6 5 8 10 11 13 12 11 10 11 9 7 7 6
16 13 11 15 16 10 10 16 16 10 3 1 3 4 3 5 7 6 4 5 6 6 4 3 2 4 3 3 5 5 7 5 6 5 3 5 5 7 9 7 9 14 14 11 5 4 4 3 4 1 2 4 8 9 7 8 9 6 5 5 4 4 4 3 3 2 2 2 3 2 6 2 2 1 4 6 8 8 10 11 11 10 9 8 7 6 6 6
11 6 6 8 11 15 15 17 15 6 2 3 3 3 4 6 8 3 5 4 4 4 3 3 1 2 3 3 3 1 7 7 6 5 3 3 3 3 1 0 5 12 15 14 7 4 3 1 3 4 4 5 5 5 4 5 6 6 5 4 1 3 4 3 3 4 4 3 3 1 4 1 1 2 2 4 5 7 8 9 8 9 9 8 6 6 7 7
5 3 3 3 15 20 19 17 10 3 2 3 3 4 6 7 5 2 6 4 3 2 2 4 5 4 5 6 6 4 2 5 4 5 3 1 0 2 4 6 2 2 7 14 11 4 2 2 2 5 4 3 3 4 5 5 5 5 4 3 2 1 2 2 2 2 4 3 3 2 1 3 2 2 2 2 4 6 7 7 7 9 10 9 8 7 6 7
3 2 4 5 19 22 18 10 4 2 3 3 4 6 7 6 2 4 5 3 1 2 2 3 5 3 3 6 6 6 4 1 2 3 2 2 3 1 4 7 5 6 3 7 7 3 2 4 4 4 3 3 4 5 9 8 4 5 5 5 4 2 2 2 3 3 2 3 3 5 2 3 1 2 2 3 5 7 9 8 8 8 8 9 8 7 7 8
2 1 5 3 18 20 11 3 3 3 3 4 5 7 6 4 2 3 4 2 1 2 2 2 3 3 2 4 4 6 5 4 4 2 2 3 3 2 5 10 7 6 5 0 1 2 1 4 4 3 3 5 6 4 7 9 6 4 4 5 6 5 3 4 3 4 2 3 2 5 2 3 2 2 2 4 6 8 10 10 9 8 8 8 8 9 10 11
1 1 7 4 15 16 5 1 3 3 3 6 8 10 7 3 3 3 3 0 1 1 1 2 3 3 2 4 4 5 5 4 4 4 3 4 2 1 6 12 11 6 5 3 3 5 4 2 2 2 3 3 6 7 5 3 2 2 2 2 2 4 4 4 4 3 4 3 3 4 1 3 2 1 3 6 7 9 9 10 10 7 6 8 9 9 10 12
1 1 5 4 14 13 3 1 3 3 4 5 7 9 7 4 3 3 2 2 1 0 1 1 3 2 1 3 3 4 4 3 4 5 4 3 2 4 9 13 11 7 5 4 3 3 3 2 2 2 0 2 4 6 6 5 5 2 4 9 8 4 3 3 2 3 3 1 3 6 2 3 1 1 4 7 8 9 10 10 10 7 6 8 9 10 11 13
2 1 2 3 8 9 2 1 2 3 3 5 5 6 6 4 2 2 4 4 4 3 1 1 3 4 3 3 3 4 4 2 3 4 3 3 2 4 10 12 10 7 6 9 8 3 1 1 2 4 3 3 2 2 2 3 4 2 6 12 12 8 6 4 3 5 3 3 3 5 3 2 3 3 6 8 8 9 10 11 10 8 7 9 9 10 11 12
0 1 1 2 2 3 2 2 2 3 3 4 3 3 5 4 2 2 4 4 5 3 4 3 2 3 5 6 4 4 5 4 3 3 2 2 2 4 8 10 9 8 9 13 12 4 2 2 3 5 4 4 4 4 3 1 3 6 9 11 10 7 6 6 4 3 2 1 4 2 5 7 6 5 7 8 8 8 8 9 10 8 8 9 9 9 11 11
0 1 1 1 1 2 2 3 3 4 5 4 1 2 4 5 2 2 3 2 4 2 3 4 1 2 2 3 3 3 5 5 5 5 5 4 3 5 7 7 6 7 9 11 10 5 3 4 5 5 4 5 6 5 3 4 9 9 9 9 9 8 8 7 5 2 4 4 3 1 5 9 6 6 8 7 8 8 7 9 9 8 8 9 9 10 12 12
1 1 2 1 2 2 3 5 6 6 8 6 2 1 3 3 2 2 1 1 4 2 2 3 4 1 3 2 2 1 2 4 5 6 7 5 4 5 6 5 4 5 6 6 6 5 4 3 4 4 4 4 5 6 6 7 10 11 10 9 8 8 8 8 4 1 3 5 4 5 6 7 5 6 8 7 8 9 8 9 9 9 10 11 10 11 12 11
1 1 3 2 2 2 3 5 7 8 8 5 1 1 2 2 3 3 1 0 2 3 2 1 3 4 4 2 1 1 2 1 2 3 3 2 2 3 3 3 2 3 5 4 4 3 3 2 5 4 4 4 4 5 7 9 12 12 12 10 8 7 8 8 6 5 6 6 6 8 9 7 4 6 8 8 9 8 8 9 10 11 11 11 11 11 10 10
1 0 2 2 2 3 5 5 5 5 3 1 1 0 0 1 1 1 2 1 2 3 1 1 2 4 5 6 5 3 2 5 4 2 2 2 2 1 1 0 1 3 3 3 2 3 2 1 5 5 3 2 2 4 7 11 13 13 12 12 10 8 7 7 6 6 7 8 8 9 10 6 4 6 8 9 9 9 9 10 11 11 11 10 10 10 10 10
5 5 5 2 2 3 4 4 1 2 2 2 2 2 1 2 3 3 1 2 0 0 2 3 4 5 7 7 6 6 6 5 4 3 3 1 1 3 3 2 2 1 2 2 2 2 2 2 2 3 2 1 3 6 8 10 12 11 10 12 11 7 5 6 6 5 3 7 8 7 5 3 4 6 8 9 10 11 11 11 10 9 10 10 10 10 10 9
5 7 7 3 2 4 3 2 1 2 2 2 2 3 3 4 6 6 2 3 2 2 2 5 4 4 4 5 5 6 7 5 4 5 5 5 2 3 5 4 4 3 1 2 3 1 3 4 2 2 2 1 4 8 7 6 6 5 5 7 9 6 7 8 8 9 6 5 5 3 3 4 5 6 8 9 10 11 10 9 8 8 9 10 10 10 10 9
Wind_Direction
329 330 330 330 329 329 329 329 329 328 329 327 329 334 334 333 331 331 328 324 324 322 321 321 321 322 323 324 327 334 332 325 319 308 255 247 250 234 239 255 263 209 213 225 215 204 200 209 233 241 244 249 233 230 254 256 242 221 183 215 248 244 248 262 265 191 134 20 55 51 343 31 51 335 354 6 305 213 80 73 77 75 84 98 108 126 135 136
328 328 328 328 328 328 328 327 327 328 327 326 326 330 332 333 331 330 326 324 323 320 321 322 322 323 323 325 330 337 334 324 310 284 258 251 243 231 237 250 250 212 209 212 206 207 203 198 219 229 232 237 221 217 227 229 225 213 186 209 234 238 251 271 283 63 95 33 19 77 26 21 36 324 340 9 320 59 93 82 85 86 92 101 111 123 130 132
324 327 327 328 329 327 327 325 325 326 327 327 325 327 332 334 331 327 324 323 319 319 322 322 324 325 324 325 331 342 333 320 302 267 265 255 230 227 235 245 243 230 226 209 199 206 211 207 210 214 217 229 229 221 213 206 217 206 199 228 242 243 261 277 295 41 72 45 18 33 24 340 336 340 344 350 347 44 109 119 101 96 106 113 118 124 128 130
322 324 326 327 328 326 326 324 324 325 325 325 323 326 329 331 330 325 323 320 317 319 321 321 324 324 324 324 330 342 332 311 280 254 271 246 211 216 222 234 240 232 226 211 204 216 233 230 216 206 210 228 230 232 221 201 206 189 200 229 253 267 282 282 302 54 67 63 39 354 344 325 324 5 349 334 2 52 106 129 128 126 131 129 125 126 131 133
320 321 323 324 325 325 324 322 322 323 323 324 322 323 325 329 327 323 321 318 317 317 318 319 320 323 323 323 330 338 333 313 295 212 158 141 185 202 212 225 236 223 212 209 216 242 262 258 236 210 209 235 233 235 231 208 195 192 223 231 246 264 275 280 321 65 76 75 59 316 306 306 325 21 337 317 324 139 140 140 142 142 141 135 129 131 136 139
317 318 321 322 323 324 322 320 320 320 321 322 321 322 323 325 322 319 317 315 316 316 318 318 319 325 322 324 330 326 327 291 327 119 135 139 168 187 204 218 223 206 198 206 225 260 270 258 243 221 204 235 247 246 241 215 192 213 250 239 239 243 253 276 316 74 88 76 44 291 281 303 349 3 301 290 278 158 151 141 139 138 136 134 133 139 142 144
316 317 319 321 321 321 321 318 317 317 318 320 320 320 320 322 320 318 314 312 314 314 317 318 320 325 327 334 334 206 214 266 283 251 163 163 175 190 201 206 206 189 185 200 221 248 263 248 232 224 213 224 248 253 249 229 203 217 254 253 252 252 252 267 278 122 114 115 194 290 313 322 356 8 315 297 317 130 139 130 127 126 127 128 131 143 144 146
316 316 317 320 319 320 320 316 315 314 315 318 318 318 318 320 319 315 313 310 311 314 316 317 321 325 335 347 345 209 229 254 268 241 189 185 191 198 199 192 192 182 179 199 216 232 252 247 231 227 221 219 243 249 250 244 218 216 246 255 259 268 265 265 271 249 152 147 183 256 284 290 278 283 280 283 279 133 144 136 132 129 124 123 126 137 140 145
316 315 317 317 317 318 318 314 312 312 313 316 317 315 315 316 316 313 310 308 310 312 314 317 319 324 341 342 309 297 251 244 246 213 190 201 204 197 200 194 187 181 180 206 225 239 243 234 231 232 227 241 260 262 276 289 235 207 227 248 248 259 268 270 279 277 157 148 174 216 247 251 242 242 249 258 244 147 146 142 138 132 128 131 132 138 142 148
315 316 317 317 316 316 315 312 310 311 313 314 315 312 312 313 311 309 307 307 309 310 313 318 318 323 332 298 258 275 254 205 178 187 190 206 206 194 196 194 189 180 181 210 226 241 244 228 224 229 242 261 272 270 282 292 258 216 221 251 255 259 267 275 284 278 264 208 182 193 249 254 237 217 229 245 243 171 141 139 140 135 132 136 138 138 142 152
315 316 317 317 315 314 312 309 309 311 312 313 314 311 310 311 308 307 305 303 305 309 312 314 318 324 313 287 254 241 241 181 163 179 195 201 206 204 190 188 191 180 185 213 227 239 244 240 231 224 232 244 266 267 272 269 269 271 268 267 261 268 281 291 295 287 287 224 162 175 257 267 266 230 230 232 235 204 149 143 143 139 136 138 141 137 137 146
315 315 316 316 315 313 310 309 309 311 311 312 312 308 308 309 309 306 301 299 302 309 312 310 315 326 302 287 236 234 236 203 177 168 186 208 214 212 183 184 195 185 190 211 229 236 240 250 261 249 238 269 259 256 290 288 279 279 287 287 275 288 284 267 268 265 274 230 167 175 251 263 250 235 240 240 246 204 139 140 139 136 138 137 138 130 129 130
314 316 317 316 315 312 310 310 311 311 311 311 309 307 306 307 308 304 299 299 303 307 310 308 298 285 300 271 237 246 254 257 226 164 172 212 209 208 186 189 201 193 199 221 243 247 250 277 319 327 325 340 270 294 315 302 282 250 259 265 286 312 273 243 238 235 235 220 185 161 248 261 235 231 231 235 247 165 130 143 143 140 141 135 134 126 130 136
313 316 316 315 313 310 310 311 312 312 311 310 307 305 304 304 305 302 300 299 303 302 294 304 276 221 260 254 263 269 265 266 256 188 165 194 197 203 204 200 200 202 214 235 256 279 290 291 312 330 334 300 282 333 321 306 290 260 270 268 243 271 264 241 223 219 216 211 171 144 238 256 245 245 234 227 232 161 137 152 146 142 140 133 137 132 142 164
312 315 314 313 310 309 311 311 313 313 311 310 306 304 301 302 304 302 303 298 295 281 273 291 218 195 288 268 279 286 255 259 251 200 177 193 199 199 206 201 195 209 225 237 258 297 311 305 327 293 302 288 286 306 299 300 288 249 217 288 234 212 255 252 226 209 205 195 143 134 232 261 249 250 246 230 228 174 143 153 144 144 148 143 148 142 147 175
313 314 313 312 309 310 312 312 314 313 312 310 305 303 300 303 306 303 302 290 284 258 229 236 203 199 290 270 282 289 235 235 224 195 188 197 205 200 196 198 194 213 227 232 254 282 283 294 338 245 260 281 273 250 271 303 290 233 187 239 236 228 254 263 241 207 197 181 138 139 215 275 255 248 253 229 217 179 143 149 147 151 152 148 154 151 149 165
314 315 313 312 310 312 313 313 315 314 313 311 307 305 302 306 304 297 293 273 267 206 199 229 207 195 252 281 299 279 214 209 209 204 197 198 211 205 189 192 192 209 227 235 250 271 270 210 195 250 243 244 242 225 242 264 266 252 214 221 241 248 251 265 248 195 183 162 140 147 195 261 263 272 280 227 180 146 135 147 150 152 151 152 151 147 152 164
315 315 313 313 312 313 313 313 315 315 315 312 310 309 305 303 284 279 279 244 184 198 232 260 257 184 251 260 254 233 197 194 207 210 198 199 215 209 186 180 178 186 193 274 249 240 226 194 178 233 254 239 238 218 200 222 237 236 222 209 243 253 247 256 251 175 170 152 149 158 202 250 260 280 302 84 125 122 134 147 152 155 154 160 154 150 165 169
315 315 314 313 312 313 314 314 314 315 317 315 317 319 307 279 265 252 245 225 159 179 238 220 199 179 293 242 221 228 211 187 193 204 193 193 213 215 189 174 172 180 171 171 216 194 182 224 211 228 253 233 227 225 217 232 239 247 248 214 233 255 256 249 203 171 169 147 150 164 202 247 259 278 307 41 126 138 144 147 155 160 154 160 158 157 169 173
316 315 314 313 313 314 313 313 314 315 319 321 328 336 330 214 280 168 225 229 215 239 273 209 197 236 294 291 244 215 200 181 180 198 193 186 200 216 196 176 173 187 188 175 193 193 164 184 223 219 227 232 232 230 238 251 251 261 275 268 269 277 289 286 166 163 157 128 174 184 203 255 275 282 292 348 122 171 172 155 160 163 155 160 161 160 162 166
316 314 314 314 313 314 313 313 312 313 315 316 323 329 287 307 338 123 216 223 224 233 255 247 217 239 258 276 286 199 159 173 184 191 193 185 188 204 196 180 176 188 209 203 199 187 153 179 227 223 223 234 242 237 239 257 264 270 279 291 301 289 293 302 181 161 119 101 198 169 73 300 298 295 290 311 91 224 205 159 160 164 159 164 163 167 169 162
317 315 315 314 313 314 313 311 308 308 306 300 296 266 263 291 318 327 303 245 242 223 234 245 233 246 249 259 270 240 152 180 194 182 182 178 179 192 183 180 187 189 201 212 215 181 175 210 224 221 223 225 239 246 237 243 252 265 277 290 299 294 304 301 199 146 98 107 195 95 57 294 285 297 299 298 273 236 210 171 167 167 161 169 178 179 177 167
316 315 316 314 314 315 313 310 304 298 291 278 243 227 255 285 316 330 328 278 279 234 224 232 228 243 248 258 261 227 183 184 189 179 171 169 181 195 186 181 197 204 188 203 213 176 187 222 219 219 225 217 229 243 237 238 243 244 244 248 270 270 294 295 207 139 145 168 158 127 133 278 288 304 305 289 274 258 237 188 165 168 170 176 185 186 178 175
314 315 316 314 315 316 313 310 301 294 286 264 244 245 260 285 308 332 341 259 282 255 227 220 213 226 238 250 244 203 199 201 195 176 163 170 187 186 201 192 195 218 197 199 206 204 224 219 208 215 226 223 226 237 234 231 238 241 232 210 255 273 274 273 291 289 213 226 139 129 82 316 282 278 285 282 279 273 261 237 172 173 180 185 187 188 183 179
314 314 314 315 318 316 316 313 305 312 305 260 254 272 288 282 295 341 10 284 266 257 228 211 202 213 225 237 228 184 188 228 245 181 160 177 185 163 216 207 188 218 210 209 207 211 237 223 196 202 218 230 230 235 233 217 211 297 273 224 252 284 290 291 312 349 23 332 276 120 72 304 271 252 255 265 278 282 274 253 241 200 187 191 189 191 189 181
314 314 313 315 318 320 322 311 305 324 308 253 260 301 345 297 297 340 355 292 274 239 169 172 175 193 204 219 216 175 165 216 247 207 163 179 188 175 213 209 183 213 207 218 217 206 237 233 209 200 205 217 224 232 226 192 156 57 264 227 231 257 276 286 301 329 53 265 268 132 128 265 295 271 249 246 248 261 264 243 239 238 217 200 184 185 186 180
312 312 312 313 318 327 328 296 314 322 290 288 317 334 17 358 340 337 18 355 282 193 144 149 170 177 181 188 183 162 174 199 215 216 177 180 191 186 207 205 179 213 216 217 221 210 216 227 240 227 206 209 215 226 203 150 133 191 238 244 240 239 251 263 268 266 235 246 294 35 118 264 297 271 261 260 250 259 275 270 253 316 352 37 124 153 163 165
310 310 310 312 315 314 298 288 310 313 264 320 347 357 3 352 336 334 68 123 256 145 132 167 181 169 172 176 170 171 227 197 174 211 189 182 193 180 202 227 210 210 225 216 215 235 210 209 227 242 240 217 202 193 158 135 152 202 217 238 247 234 230 246 257 260 256 256 305 344 33 324 271 272 280 270 280 28 21 15 42 52 38 45 89 118 135 149
309 310 309 313 313 304 292 279 274 284 296 324 346 341 338 340 337 35 65 200 200 134 143 150 140 170 176 168 169 189 230 232 181 194 176 178 200 206 200 232 241 237 237 221 219 251 237 202 204 219 232 206 199 209 152 143 185 206 215 236 263 258 218 139 86 305 337 272 271 298 345 283 279 295 306 294 1 22 51 50 48 57 52 50 75 102 116 120
308 308 308 315 313 315 333 287 256 285 325 325 322 321 326 332 3 95 159 231 204 156 150 120 116 173 181 169 177 202 221 247 248 173 165 167 195 221 252 231 246 264 256 232 231 249 257 247 213 212 207 167 182 223 196 196 223 214 217 233 266 279 270 76 64 54 29 323 253 235 203 210 271 310 342 38 50 359 43 55 39 44 51 54 60 70 79 78
306 305 306 307 299 304 327 289 254 302 337 331 320 309 315 332 84 134 168 250 257 150 127 140 158 170 178 172 180 199 212 245 250 159 168 164 173 206 272 267 247 276 290 272 254 253 251 254 244 200 228 193 180 194 192 217 235 219 204 202 240 292 329 10 3 43 32 270 253 252 245 215 221 290 341 24 48 50 58 59 48 47 57 65 59 49 59 67
305 304 300 293 283 277 266 235 226 352 354 348 340 308 324 85 173 230 248 304 274 187 167 177 177 175 178 180 188 190 197 233 232 168 170 164 159 187 190 196 199 188 271 263 238 256 246 236 237 189 237 239 164 175 194 230 233 205 181 140 127 309 6 49 323 13 227 248 232 237 256 242 204 232 321 19 40 51 59 68 66 59 65 77 75 54 44 44
306 305 297 286 271 258 250 243 259 305 340 340 332 283 78 129 202 225 240 294 200 185 200 170 173 179 176 185 197 185 192 215 200 181 176 162 160 184 189 204 203 167 214 235 215 253 249 236 242 223 223 151 123 144 159 241 219 146 156 132 129 153 105 184 226 217 223 241 230 217 228 238 195 243 333 15 37 50 55 62 62 57 57 64 68 63 54 46
309 303 294 284 267 255 253 253 258 277 314 320 313 146 168 202 247 216 223 277 230 223 249 169 167 180 176 193 207 179 187 210 182 171 175 164 165 184 186 204 220 206 193 227 223 195 215 234 232 230 211 148 152 157 157 204 212 159 175 157 151 166 161 190 198 196 219 243 257 219 183 179 175 227 309 1 21 37 49 54 56 53 50 50 45 43 46 46
312 305 299 288 272 260 252 246 238 246 287 298 263 185 207 201 271 236 231 286 256 234 241 143 148 174 178 203 226 184 176 191 179 169 170 171 175 190 185 192 215 222 188 195 242 204 219 236 204 212 218 172 165 170 167 210 261 220 185 164 183 190 170 202 223 199 176 91 346 40 87 246 180 210 337 14 23 32 45 48 52 49 42 46 40 34 39 38
318 315 308 278 269 268 243 223 205 210 252 272 166 224 227 224 260 254 272 306 296 274 297 98 103 63 189 215 261 212 188 185 175 167 171 182 180 188 195 187 198 212 203 173 222 215 216 257 202 197 213 187 157 168 177 189 230 244 200 188 210 201 166 183 259 256 119 111 268 165 100 325 336 17 345 9 34 40 47 47 50 49 42 47 45 33 37 39
323 321 308 268 263 261 206 184 176 192 226 234 211 236 246 258 265 275 326 344 324 310 331 47 112 206 201 207 254 218 193 188 174 167 179 190 191 191 197 199 186 200 211 191 212 237 199 258 258 183 210 194 161 172 186 187 197 229 245 212 198 198 198 173 232 308 83 141 260 154 133 274 12 357 315 358 41 41 48 51 49 47 44 47 45 36 28 21
319 314 297 272 254 221 174 160 165 183 209 224 250 260 264 267 271 293 2 12 339 334 355 32 169 210 203 209 248 205 168 168 173 173 181 182 196 196 193 203 188 192 207 202 215 259 198 246 301 324 254 221 168 169 197 208 201 204 237 237 180 165 216 220 195 223 125 158 266 122 114 78 81 204 306 8 37 36 47 55 50 46 50 50 42 39 30 10
308 299 291 271 212 184 164 158 169 186 220 224 240 249 243 248 253 282 43 23 335 341 346 350 332 294 316 309 303 156 160 175 169 164 188 183 218 239 199 10 194 192 200 197 201 246 194 153 289 247 241 236 187 164 199 228 215 218 257 278 236 154 171 188 199 189 147 164 227 113 84 39 260 260 322 23 41 40 49 61 60 53 55 57 50 49 43 27
286 262 304 115 148 159 159 161 176 202 215 225 236 247 262 266 256 67 56 26 344 342 326 343 352 349 335 334 354 14 211 201 159 143 165 104 81 267 355 19 6 237 211 198 190 202 194 123 244 266 296 286 222 173 189 205 194 206 244 269 271 237 163 153 260 205 148 154 193 139 83 268 262 341 1 50 59 54 54 62 66 59 55 54 51 53 52 44
260 256 296 118 137 148 152 158 196 218 217 255 257 257 279 292 288 79 71 60 22 306 271 318 334 344 337 335 355 353 326 331 54 97 143 73 88 159 343 4 16 16 351 212 189 165 177 151 189 257 312 298 248 193 196 213 194 167 187 210 215 207 151 135 293 272 146 123 161 146 171 254 240 58 36 56 70 72 68 64 61 55 54 53 45 42 48 52
250 211 278 153 139 147 150 164 232 212 219 256 252 258 274 277 289 46 63 76 160 268 264 276 316 326 317 330 353 337 336 14 359 344 137 104 98 136 341 354 6 38 53 11 293 352 58 129 147 222 238 246 262 246 213 223 231 199 187 201 198 195 182 165 213 242 142 89 84 107 124 252 227 135 103 77 75 74 69 68 65 49 43 49 44 38 42 47
214 231 281 242 154 158 169 230 225 232 241 251 261 273 279 285 336 22 45 350 206 215 285 326 335 337 340 357 354 331 349 26 342 341 87 85 43 354 4 10 8 19 54 52 340 339 355 74 115 221 251 278 303 305 286 239 240 264 311 332 224 207 196 172 188 186 148 146 125 99 94 258 245 138 95 83 77 73 67 68 69 56 35 38 40 41 44 46
292 250 293 243 172 177 216 239 218 243 244 254 269 277 290 319 329 319 337 350 345 118 213 313 337 326 322 343 329 329 3 25 343 357 57 87 9 15 36 35 29 34 46 31 346 326 340 20 80 111 76 357 340 317 324 9 24 26 24 17 14 23 60 59 19 63 103 177 137 123 169 247 241 70 85 85 78 73 70 68 67 62 48 39 37 40 43 46
302 195 295 262 193 193 244 284 264 285 278 283 282 279 297 303 253 283 350 347 322 329 8 355 350 349 336 332 336 342 351 1 349 359 40 76 27 40 51 46 42 49 37 8 354 344 129 65 87 110 136 162 170 242 275 320 325 355 40 30 22 24 51 74 57 59 43 338 41 103 148 149 112 87 81 78 71 68 67 66 59 51 50 49 43 39 41 45
3 156 278 301 222 216 266 279 279 283 282 295 290 278 289 277 227 71 31 339 300 322 355 328 335 11 350 348 5 353 339 342 332 324 9 65 50 49 58 56 47 36 24 12 5 11 94 36 56 101 126 153 154 171 193 238 356 28 37 32 24 22 54 88 88 88 126 28 16 51 142 135 129 110 86 71 67 63 61 65 61 48 49 52 48 42 44 43
157 236 222 173 247 247 251 255 245 248 264 271 264 273 274 263 261 72 68 330 288 289 344 327 341 88 343 343 24 359 337 338 334 345 10 26 52 54 51 57 46 27 27 21 10 25 76 25 22 65 97 123 127 129 123 62 48 49 43 33 24 26 51 73 82 134 147 107 23 315 135 128 127 104 85 75 74 67 55 60 60 52 52 53 47 45 45 43
172 292 273 254 259 217 201 224 217 226 253 258 236 280 301 299 320 20 110 251 282 286 66 0 347 341 242 224 130 139 314 331 346 17 27 13 21 37 30 33 31 28 46 40 20 42 83 28 5 38 66 76 94 109 107 82 67 60 50 36 22 27 53 67 64 65 124 126 164 189 140 115 110 94 79 75 78 71 59 57 53 49 53 50 46 44 42 40
169 257 266 273 273 235 233 227 199 205 242 254 211 226 300 338 348 344 343 202 313 335 81 106 302 278 256 268 65 178 191 129 11 27 58 38 12 19 19 16 355 23 65 67 31 45 82 10 346 8 52 48 51 79 95 94 79 58 42 31 21 26 47 58 47 25 44 86 132 136 110 85 75 85 79 75 76 73 67 61 51 48 51 51 48 46 41 37
137 346 282 333 326 291 287 263 196 180 215 228 82 283 283 129 147 358 352 32 11 338 355 91 329 332 344 358 10 11 96 121 117 70 98 108 86 98 93 49 299 352 51 85 34 17 74 334 327 351 37 56 52 60 77 91 86 64 39 26 21 21 27 37 32 15 36 70 90 100 97 85 69 75 70 63 63 62 59 57 54 51 50 53 53 49 44 38
249 281 283 310 302 257 259 264 220 138 157 164 154 166 185 222 183 136 1 309 98 4 327 358 19 27 12 358 3 12 23 71 84 31 2 336 170 156 155 167 158 48 32 104 101 33 104 147 330 5 29 12 83 99 105 100 87 68 40 19 10 14 36 45 36 10 38 104 102 87 85 105 102 82 69 59 56 56 53 50 55 55 52 55 56 51 47 40
271 280 268 246 259 259 233 218 222 166 188 220 176 169 203 220 184 151 146 279 229 152 44 17 43 70 27 352 356 1 356 9 25 4 334 312 285 157 139 129 140 150 135 103 112 128 141 144 160 142 126 57 100 114 118 101 78 57 31 5 354 14 60 59 39 24 33 88 103 85 86 105 100 85 74 67 61 58 54 46 48 56 57 58 57 53 47 38
Height
801 800 800 799 798 797 796 796 795 793 793 792 790 788 787 786 786 786 786 786 786 785 784 782 781 781 779 778 777 775 773 771 768 769 767 758 757 759 759 759 759 760 762 763 764 766 766 768 768 767 769 769 768 766 764 761 759 764 773 783 784 781 775 764 758 755 753 754 749 745 741 745 748 741 734 733 735 738 744 746 743 741 740 742 747 752 758 763
800 800 799 798 797 797 796 795 794 793 792 791 790 788 786 785 785 785 786 785 785 784 783 782 781 779 778 777 776 774 772 769 768 765 757 753 756 758 757 758 759 760 761 762 763 764 766 767 766 767 769 769 767 764 765 761 758 766 772 779 778 772 764 754 751 749 749 751 749 745 743 744 747 743 736 741 746 742 752 756 750 751 750 749 751 754 758 761
799 799 798 797 797 796 795 794 794 792 791 791 790 788 786 784 784 784 785 785 784 783 782 781 780 779 778 776 775 774 771 769 766 758 749 749 753 754 756 757 758 759 760 761 762 763 764 763 763 765 768 769 766 763 765 761 759 763 768 777 771 761 757 750 747 746 745 746 748 748 745 744 744 740 739 745 749 749 756 759 757 761 760 757 756 756 759 760
799 798 797 796 796 795 795 794 793 792 791 790 789 787 785 783 783 784 784 784 783 782 781 780 779 778 777 776 775 774 772 769 761 750 745 747 749 752 755 756 756 758 759 760 761 762 762 761 761 762 766 769 765 761 764 761 759 761 764 770 763 756 758 751 744 744 742 743 748 750 748 748 743 739 741 744 753 759 757 754 755 759 759 758 758 758 760 761
798 797 797 796 795 794 794 793 792 791 790 789 788 787 785 783 782 782 783 783 782 781 781 780 779 777 776 775 775 774 773 770 755 745 746 746 747 751 753 754 756 756 757 759 760 761 761 760 759 761 765 768 765 763 762 755 754 760 759 759 756 755 758 748 741 742 740 743 747 750 752 750 743 743 744 745 755 760 753 748 747 749 751 754 756 758 760 761
798 797 796 795 794 793 793 792 791 790 789 788 787 786 784 782 781 781 782 782 782 781 780 779 778 777 775 774 774 773 773 766 751 747 748 747 749 751 752 754 754 755 756 758 759 760 761 758 759 763 764 765 766 764 760 750 749 760 758 752 751 751 752 745 740 741 740 745 750 750 749 746 747 749 745 745 749 749 744 742 743 744 745 748 752 756 759 762
797 796 795 794 793 792 791 791 790 789 789 787 786 785 783 781 780 780 781 781 781 780 779 778 777 776 774 773 773 773 774 762 747 748 749 748 750 750 752 752 752 754 755 757 759 760 760 759 760 761 763 765 764 760 756 749 748 757 758 751 748 746 746 742 739 741 741 744 746 745 746 747 752 752 746 745 744 743 742 741 743 745 745 747 752 755 758 760
796 795 794 793 792 791 791 790 790 789 788 786 784 783 782 780 779 779 779 780 779 779 779 778 777 776 774 773 772 773 772 758 744 748 749 748 750 749 751 751 752 754 754 757 757 758 759 759 759 758 762 763 759 757 752 751 751 754 755 749 746 744 743 739 738 739 740 741 741 743 748 750 749 748 748 747 743 743 741 741 742 744 747 750 753 756 757 759
795 794 793 793 792 790 790 790 789 788 786 785 783 782 781 779 778 778 778 779 778 778 777 777 776 775 775 774 774 773 761 747 743 746 747 748 749 748 750 749 751 752 753 756 755 756 757 757 756 754 759 759 755 755 751 756 757 750 749 746 744 744 740 738 738 738 739 739 740 746 751 748 744 746 751 745 740 742 741 742 744 744 748 751 754 756 757 759
794 793 793 791 790 790 789 789 788 786 785 784 782 780 779 778 777 777 777 778 777 777 776 777 776 775 776 774 776 771 751 741 744 745 746 747 747 747 748 748 750 750 752 754 753 754 753 753 751 748 754 755 754 754 751 756 753 743 743 743 742 742 739 738 739 737 738 738 740 747 752 748 742 747 755 744 734 739 742 745 745 746 750 752 754 755 757 759
794 793 792 791 790 789 788 788 787 785 784 782 780 779 778 776 776 776 776 777 776 776 776 775 775 775 775 773 777 768 746 741 744 743 746 746 746 746 746 747 748 749 751 752 752 751 749 748 746 748 754 754 753 753 749 747 743 740 742 744 743 741 739 738 740 739 739 741 739 743 749 747 744 749 752 741 732 736 742 747 747 748 749 751 753 754 756 758
793 792 791 790 789 788 787 786 785 784 782 781 779 777 776 775 775 775 775 775 775 775 775 774 775 775 774 774 772 757 741 742 744 742 745 745 745 746 745 747 747 748 749 750 750 747 747 746 745 751 753 752 754 755 750 741 739 741 742 749 748 743 744 741 740 740 741 743 737 740 755 755 750 749 743 736 732 734 740 747 748 749 749 750 752 753 756 757
792 791 790 789 788 787 787 785 783 782 780 779 778 776 775 774 774 774 774 774 774 774 774 774 774 774 776 771 756 744 741 742 743 743 744 744 746 745 746 747 747 748 748 748 748 745 746 744 745 749 748 751 755 753 748 740 741 743 744 750 753 754 752 741 739 740 741 742 733 743 767 764 751 745 738 733 732 735 743 747 748 749 749 750 751 753 756 756
791 790 789 788 787 787 786 784 782 780 779 778 776 775 774 773 773 772 773 773 773 773 773 773 773 774 776 764 744 740 742 740 743 744 743 744 745 746 746 746 747 748 747 747 746 745 744 743 744 747 747 750 751 748 749 747 745 747 750 752 756 765 758 739 738 741 742 740 731 746 769 762 749 742 735 732 730 737 746 747 747 749 749 751 751 753 755 755
790 789 788 787 787 786 784 783 780 779 778 776 774 773 771 771 771 771 772 771 771 772 771 772 772 772 774 761 742 739 740 739 740 740 741 744 744 745 745 745 746 746 746 746 745 745 744 743 746 751 752 748 749 755 758 756 750 749 760 763 759 764 756 740 736 737 741 739 732 747 764 757 747 741 734 731 729 735 745 747 747 749 749 750 751 752 754 754
789 787 786 786 785 784 783 781 779 777 776 774 773 771 770 770 770 770 771 770 770 770 771 772 770 771 771 756 741 738 737 736 737 738 741 742 742 743 743 744 745 745 745 745 745 745 744 746 749 752 753 753 756 761 763 766 762 753 760 768 762 760 758 747 737 730 733 738 737 745 757 754 745 738 732 728 727 732 742 746 747 748 748 750 751 751 753 754
788 786 785 785 784 783 781 779 778 776 774 773 770 768 768 768 768 769 769 769 770 769 769 769 767 771 764 747 741 738 734 735 736 738 739 740 741 741 741 743 744 744 744 745 746 746 746 749 752 753 754 756 758 760 770 780 776 763 759 763 760 756 757 752 739 727 728 737 742 744 750 750 741 735 729 723 723 730 739 745 746 748 749 750 751 752 752 754
787 785 784 784 783 781 780 778 776 775 773 771 769 767 766 766 767 768 768 768 769 769 770 767 769 772 758 742 740 734 730 733 735 736 737 739 739 739 740 741 742 744 746 749 748 749 751 751 754 759 759 759 759 762 775 779 772 767 763 763 761 754 753 751 741 731 729 737 744 748 750 747 740 735 729 723 723 729 736 742 745 746 749 751 751 752 752 753
786 784 783 782 781 780 778 777 775 774 772 770 767 765 764 765 766 767 767 768 768 767 766 762 763 760 745 735 732 728 729 731 733 735 736 737 738 738 739 741 743 746 752 757 755 752 754 756 759 766 767 764 760 761 766 763 757 759 757 758 760 756 751 743 735 730 729 738 744 749 751 746 742 738 732 728 725 727 734 739 743 745 748 749 750 751 752 753
784 783 782 781 780 778 777 776 774 773 772 770 767 765 764 763 764 766 767 766 762 755 751 751 751 745 735 729 726 726 728 730 732 733 734 736 737 738 739 741 744 748 753 759 759 752 753 763 768 768 767 761 756 754 753 752 750 751 752 755 755 755 751 737 730 727 725 739 746 744 747 744 741 738 733 731 729 729 734 740 743 744 747 748 749 751 751 752
783 782 781 780 779 777 776 774 773 772 772 771 770 769 764 759 760 763 762 758 753 747 746 745 745 742 734 728 726 725 727 731 732 731 733 734 735 740 741 741 748 754 754 753 755 751 754 768 769 761 757 754 751 750 749 750 751 752 755 758 755 754 751 737 731 729 724 739 747 742 745 745 739 736 732 730 733 735 735 740 745 745 746 747 748 750 749 750
782 781 779 779 777 776 774 773 772 771 771 771 771 770 762 756 756 756 755 754 747 743 744 741 742 741 731 728 727 725 728 733 733 731 731 733 736 742 742 742 751 755 751 750 755 758 763 768 760 751 749 749 749 748 749 750 751 754 755 759 760 754 750 741 732 730 727 737 747 743 746 747 740 737 733 730 731 732 730 734 741 743 745 747 747 748 748 749
781 779 778 777 775 775 773 771 770 769 768 768 768 766 759 754 754 753 753 755 747 738 738 737 739 738 731 728 725 724 729 732 734 731 728 732 737 739 741 744 750 751 750 753 758 765 770 761 749 745 745 747 750 748 749 752 752 755 755 760 762 753 754 755 742 733 731 734 741 743 747 747 742 740 737 733 730 728 726 728 733 737 740 741 741 742 745 747
779 777 777 775 774 773 771 769 767 765 765 764 763 759 755 753 754 754 754 754 749 735 728 728 730 732 728 724 721 723 728 727 729 728 726 731 735 737 741 743 747 750 750 749 752 760 759 747 739 742 743 745 750 748 748 754 756 754 751 756 758 751 752 755 746 739 737 737 737 742 755 755 745 745 742 734 731 729 726 726 731 735 735 735 736 737 739 741
777 777 776 774 774 771 769 768 764 764 764 762 760 754 753 754 753 755 755 757 752 733 722 721 723 725 721 720 721 720 725 726 723 723 721 725 732 737 740 738 743 751 748 744 748 753 748 735 733 740 742 742 747 747 745 750 755 755 750 748 750 750 749 748 746 747 753 755 742 742 768 769 748 746 746 737 735 734 729 728 729 732 734 735 736 736 737 737
777 776 774 774 773 770 769 766 763 764 763 759 756 752 754 754 753 755 757 763 756 731 721 722 719 720 717 718 719 718 730 731 719 718 720 722 724 730 738 737 737 744 742 738 742 744 738 730 730 736 740 740 744 746 740 741 753 759 750 743 744 746 748 748 747 754 764 764 746 741 766 774 758 750 746 740 740 737 733 732 728 728 731 731 732 734 735 737
776 775 774 774 772 771 770 765 764 763 760 757 754 754 756 753 754 755 756 769 757 723 719 722 716 715 714 714 714 723 737 730 717 718 717 720 721 723 736 738 736 738 732 735 746 741 730 730 731 731 736 740 744 745 738 735 751 759 745 741 745 746 747 746 746 754 757 753 749 743 752 770 769 754 741 738 743 742 739 738 734 734 735 732 732 735 737 740
775 774 773 772 771 772 770 767 766 762 759 757 753 755 755 752 756 755 762 774 746 710 713 719 713 711 710 710 712 721 726 719 722 723 713 717 721 722 735 736 734 736 727 735 752 739 725 730 732 730 736 740 739 738 732 733 747 750 739 739 743 743 745 744 746 753 750 752 764 754 748 770 774 752 739 737 743 748 748 746 743 742 742 739 737 738 740 743
774 773 772 771 769 769 768 768 767 761 758 755 754 756 754 754 756 755 768 767 729 705 711 713 712 714 712 713 715 718 718 715 721 719 711 718 720 721 732 731 730 735 728 731 743 734 723 723 723 726 735 736 732 728 726 733 741 739 735 738 739 740 741 743 749 755 753 764 776 761 751 772 777 755 746 747 750 754 752 749 748 745 745 745 742 741 742 745
773 772 771 770 769 767 767 766 763 759 758 755 756 756 754 757 756 762 775 755 718 709 713 712 715 714 714 719 721 720 719 717 714 712 715 720 720 721 724 723 725 733 732 729 733 729 721 716 715 720 726 725 724 725 726 730 734 733 735 740 743 743 741 744 749 753 766 778 776 761 752 766 778 767 757 757 756 754 752 751 752 749 749 750 748 747 748 749
772 771 770 770 768 768 768 764 760 760 759 757 757 755 756 759 759 769 765 731 712 716 714 716 717 711 715 723 725 723 722 720 714 715 721 722 726 728 727 729 731 735 740 739 736 729 721 722 720 715 715 716 721 726 727 727 728 733 738 743 752 755 751 756 758 759 780 789 772 758 752 760 780 778 765 759 754 751 752 753 755 754 755 757 756 755 754 754
770 769 768 768 767 768 766 761 758 759 758 757 758 756 759 763 764 767 748 718 720 723 713 716 715 709 714 719 722 722 722 722 715 715 722 725 732 734 733 738 738 745 754 749 743 737 727 725 721 715 713 714 724 732 732 731 730 735 740 747 763 773 774 780 779 776 786 784 764 754 754 764 779 776 765 760 755 753 752 752 754 754 757 762 764 764 763 762
767 766 765 765 765 764 761 758 758 759 758 757 758 758 762 768 762 752 739 726 724 715 702 707 708 707 713 719 720 718 719 721 714 714 718 721 733 735 732 732 730 742 752 746 745 746 739 728 720 721 720 715 723 736 743 742 737 738 744 753 768 780 789 795 790 787 786 777 760 750 755 774 782 773 764 760 756 753 752 752 754 756 759 765 768 771 772 771
765 763 761 760 760 758 756 758 758 759 760 759 760 761 765 768 753 735 734 728 716 705 699 700 703 707 711 716 716 712 718 720 711 713 719 721 734 738 734 732 728 732 740 743 745 746 751 746 729 725 724 718 721 729 736 738 739 739 736 745 761 768 780 789 785 784 782 773 762 754 762 780 785 774 764 759 755 752 752 755 758 762 766 767 769 772 774 775
762 759 758 755 755 753 753 756 758 760 762 761 762 764 764 761 746 731 729 721 708 702 696 693 701 711 713 712 708 704 712 717 710 713 720 724 733 735 732 732 728 728 736 747 745 738 748 746 724 717 717 715 721 722 722 733 744 740 731 744 757 753 759 771 770 768 771 773 769 766 774 779 774 769 762 758 757 755 758 762 765 771 772 770 771 772 773 773
759 756 755 753 750 750 750 754 757 759 762 762 764 765 759 749 737 727 720 712 708 705 701 702 707 716 719 714 709 705 705 708 709 715 722 723 727 728 727 725 723 725 732 741 741 736 746 740 715 712 715 712 719 721 719 733 745 740 739 748 746 734 742 761 767 760 764 780 775 768 783 785 773 772 768 762 762 763 768 773 775 778 777 774 775 776 776 777
758 755 753 750 747 748 749 752 756 758 761 763 765 760 749 737 727 720 712 707 708 705 708 716 716 717 722 718 713 709 705 706 709 715 723 725 723 721 720 718 716 718 722 729 733 731 739 740 718 712 720 714 711 717 719 721 730 741 747 742 732 732 739 751 767 769 772 786 775 764 783 792 786 787 779 770 772 775 778 782 782 783 781 780 781 780 781 782
759 756 752 745 744 747 749 751 755 758 760 763 763 754 743 734 723 716 712 710 710 709 713 722 718 714 718 718 714 705 705 712 714 715 721 724 721 715 713 714 712 712 712 720 730 726 730 743 729 712 719 716 707 718 729 721 718 730 736 727 731 751 756 753 765 774 779 786 778 771 784 793 794 796 789 783 786 787 786 788 789 789 787 787 787 785 785 786
760 758 751 741 741 746 749 752 754 757 760 762 761 751 737 729 720 713 713 711 713 715 718 720 716 713 715 716 713 706 706 713 713 714 721 723 722 717 713 713 711 710 707 712 725 725 724 742 740 718 714 716 713 723 738 735 724 723 727 725 729 743 751 752 755 761 771 781 779 778 788 795 797 795 792 793 794 792 792 793 793 793 791 791 791 790 790 789
759 758 751 740 741 746 749 753 755 758 760 757 753 744 731 723 716 712 712 713 714 718 720 721 719 721 721 717 713 710 709 709 708 713 720 721 723 723 715 712 714 713 708 707 716 721 723 737 744 728 717 723 727 725 731 736 732 731 736 738 737 735 737 744 749 748 757 772 775 777 791 800 796 791 791 794 792 791 793 794 795 794 794 794 794 793 793 793
758 758 751 742 743 747 749 755 756 756 756 751 745 739 731 724 718 713 711 713 716 716 717 720 722 724 725 721 717 714 710 709 709 712 717 720 727 731 720 711 714 715 714 714 715 720 726 734 740 736 730 734 731 718 715 721 725 730 736 737 739 740 741 753 762 751 747 760 768 774 793 801 794 790 791 792 792 792 791 794 797 797 796 796 795 794 794 793
758 758 751 744 746 747 750 756 754 751 751 747 740 734 726 722 718 714 713 715 717 716 714 717 719 721 722 721 719 717 714 715 714 715 717 718 725 730 720 711 712 714 719 727 725 721 723 729 736 738 734 731 723 712 711 712 712 719 727 728 730 735 741 755 766 756 750 760 767 774 791 796 791 790 790 789 792 792 791 794 799 800 799 797 796 796 795 795
757 756 750 746 746 747 751 755 751 749 747 741 734 728 721 718 718 716 716 717 718 718 718 718 718 720 720 719 719 719 718 719 719 718 720 721 722 722 717 713 715 716 721 732 732 724 723 731 740 741 733 725 718 712 710 710 714 723 730 729 729 732 735 742 748 747 753 763 767 777 793 796 791 789 787 789 792 793 794 797 800 803 801 799 798 799 799 798
755 754 750 747 747 748 752 754 750 749 745 737 733 728 721 718 719 720 720 719 718 718 721 721 718 719 719 718 719 720 721 725 724 719 721 726 723 719 717 717 719 722 729 735 734 730 733 739 744 748 748 743 737 733 729 729 732 739 744 743 741 737 734 737 741 745 756 763 762 774 793 797 792 788 788 792 796 798 801 801 802 804 803 802 802 802 801 801
755 755 752 748 747 748 751 750 749 749 745 740 737 732 727 723 719 720 723 723 720 718 721 722 719 718 718 718 721 721 719 725 727 722 723 727 724 720 720 722 723 726 732 733 730 729 736 742 745 752 761 763 762 762 762 758 750 747 752 755 753 747 740 742 751 758 768 773 769 778 794 797 793 792 794 797 801 805 806 805 805 806 805 806 806 806 806 806
756 757 755 751 748 748 749 746 747 750 747 743 739 734 732 730 722 719 723 726 723 720 722 723 720 722 724 724 727 728 724 723 725 724 725 728 728 726 725 726 728 729 730 731 729 730 737 742 744 750 757 761 764 765 763 762 759 760 764 765 762 757 749 749 757 767 776 782 782 785 790 793 796 798 799 802 805 809 810 809 809 810 810 810 811 811 811 811
758 757 754 752 751 750 751 747 746 747 744 741 740 736 733 732 726 724 726 727 724 722 725 725 722 726 731 730 733 735 732 728 727 729 732 732 732 732 729 728 731 731 731 733 732 734 743 749 749 750 752 751 754 757 755 756 764 771 775 774 770 763 757 757 763 768 772 779 788 789 786 791 799 801 804 807 809 813 815 813 814 815 814 814 815 815 816 817
757 756 750 748 749 749 750 747 743 744 742 738 738 736 734 733 732 732 731 728 724 723 728 731 728 728 730 730 734 739 736 735 736 739 742 741 738 738 735 734 733 733 734 738 741 745 752 757 754 751 751 749 747 751 754 758 768 776 778 780 777 770 766 768 771 771 768 771 781 787 787 794 802 805 809 812 812 817 819 818 818 819 818 819 820 820 821 822
754 755 750 746 745 744 743 739 736 739 739 736 736 736 736 737 736 734 730 730 731 727 729 736 734 729 727 726 732 738 738 741 746 746 745 745 744 744 744 742 739 736 737 742 749 752 756 762 760 753 754 755 750 751 755 761 771 780 782 783 781 777 776 776 777 776 773 773 779 787 794 802 807 810 813 813 814 817 819 820 822 822 823 825 826 826 826 826
754 754 751 748 748 746 742 735 732 736 737 735 737 737 736 737 738 735 731 733 738 735 731 735 736 731 730 729 733 738 738 739 744 744 742 745 747 746 747 747 744 740 741 747 753 755 757 765 767 761 759 759 756 758 764 769 777 787 790 788 785 784 784 783 783 782 783 787 792 796 803 810 812 813 815 815 816 818 820 823 825 827 828 829 831 832 831 830
753 751 750 753 752 746 741 735 730 735 738 737 738 737 736 736 735 735 735 732 734 736 733 735 736 734 735 735 737 741 738 734 737 738 737 740 743 741 742 743 743 744 746 749 755 756 757 765 772 771 768 766 764 768 772 773 778 788 797 798 793 790 790 792 792 791 789 792 796 798 804 812 816 817 819 820 821 822 825 826 828 830 831 832 834 835 834 833
752 750 748 752 750 741 736 734 732 735 738 735 733 733 733 733 730 732 737 733 729 730 731 732 735 737 740 742 741 740 738 734 733 734 733 734 734 734 736 737 740 744 747 749 753 754 755 763 770 771 772 773 771 770 772 772 776 788 801 806 801 795 793 796 799 798 794 794 798 801 807 814 819 821 823 826 827 828 830 831 831 833 834 835 836 836 836 835